Weather History for Bierset, Belgium

Change the Weather History Date:

Friday, February 1, 2013

  Actual Average Record
Temperature  
Mean Temperature 40 °F -  
Max Temperature 44 °F 41 °F 51 °F (2002)
Min Temperature 37 °F 33 °F 12 °F (2012)
Degree Days  
Heating Degree Days 24    
Moisture  
Dew Point 39 °F    
Average Humidity 89    
Maximum Humidity 100    
Minimum Humidity 66    
Precipitation  
Precipitation 0.31 in - - ()
Sea Level Pressure  
Sea Level Pressure 29.61 in    
Wind  
Wind Speed 13 mph ()    
Max Wind Speed 20 mph    
Max Gust Speed -    
Visibility 5.6 miles    
Events Rain    
Averages and records for this station are not official NWS values.
T = Trace of Precipitation, MM = Missing Value Source: Averaged Metar Reports

Daily Weather History Graph

Daily Weather History Graph

Search for Another Location

Airport:

Trip Planner

Search our weather history database for the weather conditions in past years. The results will help you decide how hot, cold, wet, or windy it might be!

Date:

Astronomy

Feb. 01, 2013 Rise Set
Actual Time 8:13 AM CET 5:30 PM CET
Civil Twilight 7:38 AM CET 6:06 PM CET
Nautical Twilight 6:58 AM CET 6:45 PM CET
Astronomical Twilight 6:20 AM CET 7:23 PM CET
Moon No Moon Rise 9:57 AM CET (2/1)
Length of Visible Light 10h 27m
Length of Day
9h 17m
Waning Gibbous, 73% of the Moon is Illuminated
Feb 1
Waning Gibbous
Feb 3
Last Quarter
Feb 10
New
Feb 17
First Quarter
Feb 25
Full

Hourly Weather History & Observations

Time (CET) Temp. Windchill Dew Point Humidity Pressure Visibility Wind Dir Wind Speed Gust Speed Precip Events Conditions
12:20 AM 44.6 °F 36.9 °F 39.2 °F 81% 29.95 in 6.2 mi WSW 18.4 mph - N/A   Scattered Clouds
12:50 AM 44.6 °F 36.9 °F 39.2 °F 81% 29.92 in 6.2 mi WSW 18.4 mph - N/A   Mostly Cloudy
1:00 AM 44 °F - 39 °F 76% 29.96 in 7 mi WSW 17.9 mph - -   Mostly Cloudy
1:20 AM 44.6 °F 36.6 °F 39.2 °F 81% 29.92 in 6.2 mi WSW 19.6 mph - N/A   Mostly Cloudy
1:50 AM 42.8 °F 34.8 °F 39.2 °F 87% 29.92 in 6.2 mi WSW 17.3 mph - N/A   Scattered Clouds
2:20 AM 42.8 °F 35.1 °F 39.2 °F 87% 29.89 in 6.2 mi SW 16.1 mph - N/A   Scattered Clouds
2:50 AM 42.8 °F 34.8 °F 39.2 °F 87% 29.92 in 6.2 mi SW 17.3 mph - N/A   Scattered Clouds
3:20 AM 42.8 °F 35.1 °F 39.2 °F 87% 29.89 in 6.2 mi SW 16.1 mph - N/A   Scattered Clouds
3:50 AM 42.8 °F 35.1 °F 39.2 °F 87% 29.89 in 6.2 mi SW 16.1 mph - N/A   Scattered Clouds
4:00 AM 43 °F - 39 °F 79% 29.91 in 7 mi SW 15.7 mph - -   Partly Cloudy
4:20 AM 42.8 °F 34.8 °F 39.2 °F 87% 29.86 in 6.2 mi SW 17.3 mph - N/A   Partly Cloudy
4:50 AM 44.6 °F 37.2 °F 39.2 °F 81% 29.86 in 6.2 mi SW 17.3 mph - N/A   Scattered Clouds
5:20 AM 44.6 °F 37.8 °F 39.2 °F 81% 29.83 in 6.2 mi SW 15.0 mph - N/A   Scattered Clouds
5:50 AM 42.8 °F 36.2 °F 39.2 °F 87% 29.83 in 6.2 mi SSW 12.7 mph - N/A   Scattered Clouds
6:20 AM 44.6 °F 37.8 °F 39.2 °F 81% 29.80 in 6.2 mi SSW 15.0 mph - N/A   Scattered Clouds
6:50 AM 44.6 °F 37.8 °F 37.4 °F 76% 29.77 in 6.2 mi SW 15.0 mph - N/A   Partly Cloudy
7:00 AM 44 °F - 36 °F 66% 29.81 in 12 mi SW 15.7 mph - -   Scattered Clouds
7:20 AM 42.8 °F 34.8 °F 37.4 °F 81% 29.77 in 6.2 mi SW 17.3 mph - N/A   Partly Cloudy
7:50 AM 42.8 °F 35.4 °F 37.4 °F 81% 29.74 in 6.2 mi SSW 15.0 mph - N/A Rain Light Rain
8:20 AM 41.0 °F 33.5 °F 37.4 °F 87% 29.74 in 6.2 mi SSW 13.8 mph - N/A Rain Light Rain
8:50 AM 41.0 °F 33.5 °F 37.4 °F 87% 29.74 in 6.2 mi SSW 13.8 mph - N/A Rain Light Rain
9:20 AM 39.2 °F 32.5 °F 37.4 °F 93% 29.71 in 5.6 mi SSW 10.4 mph - N/A Rain Light Rain
9:50 AM 39.2 °F 34.2 °F 37.4 °F 93% 29.68 in 5.0 mi South 6.9 mph - N/A Rain Light Rain
10:00 AM 40 °F - 38 °F 89% 29.71 in 5 mi South 6.7 mph - - Rain Light Rain
10:20 AM 39.2 °F 33.0 °F 37.4 °F 93% 29.65 in 6.2 mi SSW 9.2 mph - N/A Rain Light Rain
10:50 AM 39.2 °F 32.0 °F 37.4 °F 93% 29.62 in 6.2 mi SSW 11.5 mph - N/A Rain Light Rain
11:20 AM 39.2 °F 32.5 °F 37.4 °F 93% 29.62 in 6.2 mi South 10.4 mph - N/A Rain Light Rain
11:50 AM 39.2 °F 33.0 °F 37.4 °F 93% 29.59 in 6.2 mi South 9.2 mph - N/A Rain Light Rain
12:20 PM 41.0 °F 34.7 °F 39.2 °F 93% 29.56 in 5.6 mi South 10.4 mph - N/A Rain Light Rain
12:50 PM 41.0 °F 34.7 °F 39.2 °F 93% 29.53 in 5.6 mi South 10.4 mph - N/A Rain Light Rain
1:00 PM 40 °F - 39 °F 93% 29.56 in 6 mi South 11.2 mph - - Rain Light Rain
1:20 PM 41.0 °F 34.3 °F 39.2 °F 93% 29.50 in 4.3 mi South 11.5 mph - N/A Rain Light Rain
1:50 PM 42.8 °F 36.2 °F 41.0 °F 93% 29.47 in 5.0 mi SSW 12.7 mph - N/A Rain Light Rain
2:20 PM 42.8 °F 37.0 °F 41.0 °F 93% 29.44 in 3.1 mi SSW 10.4 mph - N/A Rain Light Rain
2:50 PM 42.8 °F 38.6 °F 41.0 °F 93% 29.42 in 2.8 mi SSW 6.9 mph - N/A Rain Light Rain
3:20 PM 42.8 °F 38.0 °F 41.0 °F 93% 29.42 in 6.2 mi South 8.1 mph - N/A Rain Light Rain
3:50 PM 42.8 °F 36.6 °F 41.0 °F 93% 29.39 in 5.0 mi SSW 11.5 mph - N/A Rain Light Rain
4:00 PM 43 °F - 42 °F 93% 29.42 in 5 mi SSW 11.2 mph - - Rain Light Rain
4:20 PM 42.8 °F 36.2 °F 41.0 °F 93% 29.39 in 5.0 mi SSW 12.7 mph - N/A Rain Light Rain
4:50 PM 42.8 °F 35.8 °F 41.0 °F 93% 29.36 in 6.2 mi SSW 13.8 mph - N/A Rain Light Rain
5:20 PM 44.6 °F 38.8 °F 41.0 °F 87% 29.33 in 6.2 mi SSW 11.5 mph - N/A   Mostly Cloudy
5:50 PM 42.8 °F 35.8 °F 42.8 °F 100% 29.33 in 5.0 mi SSW 13.8 mph - N/A Rain Light Rain Showers
6:20 PM 42.8 °F 36.6 °F 42.8 °F 100% 29.33 in 5.0 mi SW 11.5 mph - N/A Rain Light Rain Showers
6:50 PM 42.8 °F 36.6 °F 41.0 °F 93% 29.33 in 3.1 mi West 11.5 mph - N/A Rain Light Rain Showers
7:00 PM 43 °F - 41 °F 92% 29.34 in 3 mi West 11.2 mph - - Rain Light Rain Showers
7:20 PM 41.0 °F 33.9 °F 41.0 °F 100% 29.33 in 4.3 mi WNW 12.7 mph - N/A Rain Light Rain Showers
7:50 PM 39.2 °F 30.8 °F 37.4 °F 93% 29.33 in 6.2 mi NW 15.0 mph - N/A   Mostly Cloudy
8:20 PM 39.2 °F 31.6 °F 37.4 °F 93% 29.36 in 6.2 mi NNW 12.7 mph - N/A   Mostly Cloudy
8:50 PM 39.2 °F 31.2 °F 35.6 °F 87% 29.39 in 3.7 mi NW 13.8 mph - N/A   Mostly Cloudy
9:20 PM 37.4 °F 29.8 °F 37.4 °F 100% 29.39 in 2.2 mi NW 11.5 mph - N/A Rain Light Rain
9:50 PM 37.4 °F 31.4 °F 35.6 °F 93% 29.39 in - NW 8.1 mph - N/A   Mostly Cloudy
10:00 PM 37 °F - 36 °F 97% 29.42 in 3 mi NW 6.7 mph - - Rain Light Rain
10:20 PM 37.4 °F 29.8 °F 35.6 °F 93% 29.42 in 5.0 mi NW 11.5 mph - N/A   Mostly Cloudy
10:50 PM 37.4 °F 30.3 °F 35.6 °F 93% 29.42 in 6.2 mi NNW 10.4 mph - N/A   Mostly Cloudy
11:20 PM 37.4 °F 31.4 °F 35.6 °F 93% 29.42 in 5.0 mi NW 8.1 mph - N/A   Mostly Cloudy
11:50 PM 37.4 °F 32.1 °F 35.6 °F 93% 29.42 in 4.3 mi NW 6.9 mph - N/A   Mostly Cloudy